User: anonymous   Login
Location: Unspecified
(0.0000°N, 0.0000°E)
Time: 00:14:56
(UTC+00:00)
Language:

STARLINK-4480 - Orbit

View from above orbital plane
View from above orbital plane
View from above satellite
View from above satellite

Ground track
Ground track

The orbit is defined by the following mean orbital elements,

1 53416U          26145.38250005 +.00000000 +00000-0 +48998-4 0 00005
2 53416  53.2150 129.7812 0001108  83.0929 277.0189 15.08839059    00
Epoch (UTC): 25 May 2026 09:10:48
Eccentricity: 0.0001108
inclination: 53.2150°
perigee height: 539 km
apogee height: 541 km
right ascension of ascending node: 129.7812°
argument of perigee: 83.0929°
revolutions per day: 15.08839059
mean anomaly at epoch: 277.0189°

The dashed part of the orbit path shows where the satellite is in the earth's shadow,  

DLR